Time,TemperatureF,DewpointF,PressureIn,WindDirection,WindDirectionDegrees,WindSpeedMPH,WindSpeedGustMPH,Humidity,HourlyPrecipIn,Conditions,Clouds,dailyrainin,SoftwareType,DateUTC
2013-05-20 00:01:00,49.4,35.3,29.93,SSW,198,0.0,0.0,58,0.00,,,0.00,vanprod-2.5-rc3,2013-05-20 06:01:00,
2013-05-20 00:06:00,49.3,36.0,29.93,SW,215,0.0,0.0,60,0.00,,,0.00,vanprod-2.5-rc3,2013-05-20 06:06:00,
2013-05-20 00:11:00,48.8,36.4,29.93,SW,227,0.0,0.0,62,0.00,,,0.00,vanprod-2.5-rc3,2013-05-20 06:11:00,
2013-05-20 00:16:00,48.3,36.3,29.93,SW,233,0.0,0.0,63,0.00,,,0.00,vanprod-2.5-rc3,2013-05-20 06:16:00,
2013-05-20 00:21:00,47.8,36.6,29.94,NW,321,0.0,0.0,65,0.00,,,0.00,vanprod-2.5-rc3,2013-05-20 06:21:00,
2013-05-20 00:26:00,47.4,36.6,29.94,NNE,23,0.0,0.0,66,0.00,,,0.00,vanprod-2.5-rc3,2013-05-20 06:26:00,
2013-05-20 00:31:00,47.2,36.8,29.95,NE,49,0.0,0.0,67,0.00,,,0.00,vanprod-2.5-rc3,2013-05-20 06:31:00,
2013-05-20 00:36:00,46.9,36.9,29.95,ENE,57,0.0,0.0,68,0.00,,,0.00,vanprod-2.5-rc3,2013-05-20 06:36:00,
2013-05-20 00:41:00,46.9,36.9,29.95,ESE,108,0.0,0.0,68,0.00,,,0.00,vanprod-2.5-rc3,2013-05-20 06:41:00,
2013-05-20 00:46:00,46.9,36.9,29.95,ESE,123,2.0,5.0,68,0.00,,,0.00,vanprod-2.5-rc3,2013-05-20 06:46:00,
2013-05-20 00:51:00,47.1,37.1,29.95,SE,130,0.0,0.0,68,0.00,,,0.00,vanprod-2.5-rc3,2013-05-20 06:51:00,
2013-05-20 00:56:00,47.3,36.9,29.95,SE,140,3.0,5.0,67,0.00,,,0.00,vanprod-2.5-rc3,2013-05-20 06:56:00,
2013-05-20 01:01:00,47.5,37.1,29.95,SE,137,0.0,0.0,67,0.00,,,0.00,vanprod-2.5-rc3,2013-05-20 07:01:00,
2013-05-20 01:06:00,47.6,37.2,29.95,NNW,342,0.0,0.0,67,0.00,,,0.00,vanprod-2.5-rc3,2013-05-20 07:06:00,
2013-05-20 01:11:00,47.5,38.2,29.95,North,350,0.0,0.0,70,0.00,,,0.00,vanprod-2.5-rc3,2013-05-20 07:11:00,
2013-05-20 01:16:00,47.2,39.0,29.94,NNW,345,0.0,0.0,73,0.00,,,0.00,vanprod-2.5-rc3,2013-05-20 07:16:00,
2013-05-20 01:21:00,46.7,38.9,29.94,NW,326,0.0,0.0,74,0.00,,,0.00,vanprod-2.5-rc3,2013-05-20 07:21:00,
2013-05-20 01:26:00,46.4,38.6,29.94,WNW,300,0.0,0.0,74,0.00,,,0.00,vanprod-2.5-rc3,2013-05-20 07:26:00,
2013-05-20 01:31:00,46.5,40.0,29.94,WSW,248,0.0,0.0,78,0.00,,,0.00,vanprod-2.5-rc3,2013-05-20 07:31:00,
2013-05-20 01:36:00,46.7,40.5,29.93,SSW,213,0.0,0.0,79,0.01,,,0.01,vanprod-2.5-rc3,2013-05-20 07:36:00,
2013-05-20 01:41:00,46.8,41.3,29.93,South,188,1.0,4.0,81,0.01,,,0.01,vanprod-2.5-rc3,2013-05-20 07:41:00,
2013-05-20 01:46:00,46.6,41.1,29.93,South,179,0.0,0.0,81,0.02,,,0.02,vanprod-2.5-rc3,2013-05-20 07:46:00,
2013-05-20 01:51:00,46.4,40.9,29.92,South,176,0.0,0.0,81,0.02,,,0.02,vanprod-2.5-rc3,2013-05-20 07:51:00,
2013-05-20 01:56:00,46.3,40.8,29.92,South,172,0.0,0.0,81,0.02,,,0.02,vanprod-2.5-rc3,2013-05-20 07:56:00,
2013-05-20 02:01:00,46.1,40.3,29.92,South,172,0.0,0.0,80,0.02,,,0.02,vanprod-2.5-rc3,2013-05-20 08:01:00,
2013-05-20 02:06:00,45.8,40.3,29.92,NE,34,0.0,0.0,81,0.02,,,0.02,vanprod-2.5-rc3,2013-05-20 08:06:00,
2013-05-20 02:11:00,45.3,39.8,29.92,NNE,22,0.0,0.0,81,0.02,,,0.02,vanprod-2.5-rc3,2013-05-20 08:11:00,
2013-05-20 02:16:00,45.0,39.8,29.92,NNE,30,2.0,5.0,82,0.02,,,0.02,vanprod-2.5-rc3,2013-05-20 08:16:00,
2013-05-20 02:21:00,44.5,39.4,29.93,NE,51,2.0,3.0,82,0.02,,,0.02,vanprod-2.5-rc3,2013-05-20 08:21:00,
2013-05-20 02:26:00,44.2,39.4,29.94,NE,46,2.0,4.0,83,0.02,,,0.02,vanprod-2.5-rc3,2013-05-20 08:26:00,
2013-05-20 02:31:00,43.7,38.9,29.94,ENE,58,4.0,5.0,83,0.02,,,0.02,vanprod-2.5-rc3,2013-05-20 08:31:00,
2013-05-20 02:36:00,43.3,38.5,29.94,ENE,58,4.0,5.0,83,0.01,,,0.02,vanprod-2.5-rc3,2013-05-20 08:36:00,
2013-05-20 02:41:00,43.1,38.6,29.94,ENE,76,3.0,4.0,84,0.01,,,0.02,vanprod-2.5-rc3,2013-05-20 08:41:00,
2013-05-20 02:46:00,42.9,38.4,29.93,East,80,3.0,4.0,84,0.00,,,0.02,vanprod-2.5-rc3,2013-05-20 08:46:00,
2013-05-20 02:51:00,42.8,38.6,29.93,East,98,4.0,7.0,85,0.00,,,0.02,vanprod-2.5-rc3,2013-05-20 08:51:00,
2013-05-20 02:56:00,42.9,39.0,29.93,ESE,104,4.0,5.0,86,0.00,,,0.02,vanprod-2.5-rc3,2013-05-20 08:56:00,
2013-05-20 03:01:00,43.0,39.1,29.93,East,96,4.0,5.0,86,0.00,,,0.02,vanprod-2.5-rc3,2013-05-20 09:01:00,
2013-05-20 03:06:00,43.1,39.2,29.93,East,97,3.0,4.0,86,0.00,,,0.02,vanprod-2.5-rc3,2013-05-20 09:06:00,
2013-05-20 03:11:00,43.1,39.2,29.93,East,97,3.0,4.0,86,0.00,,,0.02,vanprod-2.5-rc3,2013-05-20 09:11:00,
2013-05-20 03:16:00,43.1,39.2,29.93,East,100,0.0,0.0,86,0.00,,,0.02,vanprod-2.5-rc3,2013-05-20 09:16:00,
2013-05-20 03:21:00,43.1,38.9,29.93,ESE,105,0.0,0.0,85,0.00,,,0.02,vanprod-2.5-rc3,2013-05-20 09:21:00,
2013-05-20 03:26:00,42.8,38.6,29.93,ESE,107,0.0,0.0,85,0.00,,,0.02,vanprod-2.5-rc3,2013-05-20 09:26:00,
2013-05-20 03:31:00,42.5,38.3,29.93,ESE,107,0.0,0.0,85,0.00,,,0.02,vanprod-2.5-rc3,2013-05-20 09:31:00,
2013-05-20 03:36:00,42.3,37.8,29.92,ESE,107,0.0,0.0,84,0.00,,,0.02,vanprod-2.5-rc3,2013-05-20 09:36:00,
2013-05-20 03:41:00,42.0,37.5,29.93,ESE,107,0.0,0.0,84,0.00,,,0.02,vanprod-2.5-rc3,2013-05-20 09:41:00,
2013-05-20 03:46:00,41.6,36.8,29.93,East,99,0.0,0.0,83,0.00,,,0.02,vanprod-2.5-rc3,2013-05-20 09:46:00,
2013-05-20 03:51:00,41.1,36.3,29.93,East,84,3.0,3.0,83,0.00,,,0.02,vanprod-2.5-rc3,2013-05-20 09:51:00,
2013-05-20 03:56:00,40.8,36.3,29.93,East,83,2.0,3.0,84,0.00,,,0.02,vanprod-2.5-rc3,2013-05-20 09:56:00,
2013-05-20 04:01:00,40.7,36.6,29.93,ENE,71,2.0,2.0,85,0.00,,,0.02,vanprod-2.5-rc3,2013-05-20 10:01:00,
2013-05-20 04:06:00,40.8,37.2,29.93,ENE,72,0.0,0.0,87,0.00,,,0.02,vanprod-2.5-rc3,2013-05-20 10:06:00,
2013-05-20 04:11:00,41.1,37.8,29.93,ENE,72,0.0,0.0,88,0.00,,,0.02,vanprod-2.5-rc3,2013-05-20 10:11:00,
2013-05-20 04:16:00,41.6,38.3,29.93,South,174,0.0,0.0,88,0.00,,,0.02,vanprod-2.5-rc3,2013-05-20 10:16:00,
2013-05-20 04:21:00,41.9,38.6,29.94,South,178,0.0,0.0,88,0.00,,,0.02,vanprod-2.5-rc3,2013-05-20 10:21:00,
2013-05-20 04:26:00,42.1,38.8,29.94,South,178,0.0,0.0,88,0.00,,,0.02,vanprod-2.5-rc3,2013-05-20 10:26:00,
2013-05-20 04:31:00,42.2,38.9,29.94,South,178,0.0,0.0,88,0.00,,,0.02,vanprod-2.5-rc3,2013-05-20 10:31:00,
2013-05-20 04:36:00,42.4,39.1,29.94,South,178,0.0,0.0,88,0.00,,,0.02,vanprod-2.5-rc3,2013-05-20 10:36:00,
2013-05-20 04:41:00,42.5,39.2,29.95,South,178,0.0,0.0,88,0.00,,,0.02,vanprod-2.5-rc3,2013-05-20 10:41:00,
2013-05-20 04:46:00,42.4,38.8,29.94,South,178,0.0,0.0,87,0.00,,,0.02,vanprod-2.5-rc3,2013-05-20 10:46:00,
2013-05-20 04:51:00,42.3,38.4,29.94,South,178,0.0,0.0,86,0.00,,,0.02,vanprod-2.5-rc3,2013-05-20 10:51:00,
2013-05-20 04:56:00,42.3,38.7,29.94,South,177,0.0,0.0,87,0.00,,,0.02,vanprod-2.5-rc3,2013-05-20 10:56:00,
2013-05-20 05:01:00,42.2,38.6,29.95,South,177,0.0,0.0,87,0.00,,,0.02,vanprod-2.5-rc3,2013-05-20 11:01:00,
2013-05-20 05:06:00,42.0,38.1,29.95,ESE,119,0.0,0.0,86,0.00,,,0.02,vanprod-2.5-rc3,2013-05-20 11:06:00,
2013-05-20 05:11:00,42.0,38.4,29.95,ESE,119,0.0,0.0,87,0.00,,,0.02,vanprod-2.5-rc3,2013-05-20 11:11:00,
2013-05-20 05:16:00,42.1,38.5,29.96,ESE,118,0.0,0.0,87,0.00,,,0.02,vanprod-2.5-rc3,2013-05-20 11:16:00,
2013-05-20 05:21:00,42.1,38.5,29.96,ESE,114,2.0,2.0,87,0.00,,,0.02,vanprod-2.5-rc3,2013-05-20 11:21:00,
2013-05-20 05:26:00,42.1,38.5,29.96,ESE,113,0.0,0.0,87,0.00,,,0.02,vanprod-2.5-rc3,2013-05-20 11:26:00,
2013-05-20 05:31:00,42.1,38.5,29.96,ESE,113,0.0,0.0,87,0.00,,,0.02,vanprod-2.5-rc3,2013-05-20 11:31:00,
2013-05-20 05:36:00,42.1,38.5,29.96,ESE,113,0.0,0.0,87,0.00,,,0.02,vanprod-2.5-rc3,2013-05-20 11:36:00,
2013-05-20 05:41:00,42.2,38.6,29.97,ESE,113,0.0,0.0,87,0.00,,,0.02,vanprod-2.5-rc3,2013-05-20 11:41:00,
2013-05-20 05:46:00,42.4,39.1,29.97,ESE,115,0.0,0.0,88,0.00,,,0.02,vanprod-2.5-rc3,2013-05-20 11:46:00,
2013-05-20 05:51:00,42.5,38.9,29.96,ESE,115,0.0,0.0,87,0.00,,,0.02,vanprod-2.5-rc3,2013-05-20 11:51:00,
2013-05-20 05:56:00,42.5,38.9,29.96,ESE,116,0.0,0.0,87,0.00,,,0.02,vanprod-2.5-rc3,2013-05-20 11:56:00,
2013-05-20 06:01:00,42.5,38.6,29.97,South,185,0.0,0.0,86,0.00,,,0.02,vanprod-2.5-rc3,2013-05-20 12:01:00,
2013-05-20 06:06:00,42.6,38.7,29.97,South,184,0.0,0.0,86,0.00,,,0.02,vanprod-2.5-rc3,2013-05-20 12:06:00,
2013-05-20 06:11:00,42.6,38.4,29.98,South,184,0.0,0.0,85,0.00,,,0.02,vanprod-2.5-rc3,2013-05-20 12:11:00,
2013-05-20 06:16:00,42.6,38.4,29.98,South,184,0.0,0.0,85,0.00,,,0.02,vanprod-2.5-rc3,2013-05-20 12:16:00,
2013-05-20 06:21:00,42.4,38.2,29.97,South,184,0.0,0.0,85,0.00,,,0.02,vanprod-2.5-rc3,2013-05-20 12:21:00,
2013-05-20 06:26:00,42.5,38.6,29.98,South,184,0.0,0.0,86,0.00,,,0.02,vanprod-2.5-rc3,2013-05-20 12:26:00,
2013-05-20 06:31:00,42.6,38.7,29.98,South,184,0.0,0.0,86,0.00,,,0.02,vanprod-2.5-rc3,2013-05-20 12:31:00,
2013-05-20 06:36:00,42.9,39.3,29.98,South,184,0.0,0.0,87,0.00,,,0.02,vanprod-2.5-rc3,2013-05-20 12:36:00,
2013-05-20 06:41:00,43.2,39.6,29.97,South,186,2.0,2.0,87,0.00,,,0.02,vanprod-2.5-rc3,2013-05-20 12:41:00,
2013-05-20 06:46:00,43.5,39.9,29.97,West,263,0.0,0.0,87,0.00,,,0.02,vanprod-2.5-rc3,2013-05-20 12:46:00,
2013-05-20 06:51:00,43.3,39.4,29.98,NNW,346,4.0,4.0,86,0.00,,,0.02,vanprod-2.5-rc3,2013-05-20 12:51:00,
2013-05-20 06:56:00,43.2,39.6,29.97,North,355,0.0,0.0,87,0.00,,,0.02,vanprod-2.5-rc3,2013-05-20 12:56:00,
2013-05-20 07:01:00,43.3,39.7,29.97,North,355,0.0,0.0,87,0.00,,,0.02,vanprod-2.5-rc3,2013-05-20 13:01:00,
2013-05-20 07:06:00,43.6,40.3,29.97,North,355,0.0,0.0,88,0.00,,,0.02,vanprod-2.5-rc3,2013-05-20 13:06:00,
2013-05-20 07:11:00,43.7,40.1,29.98,North,355,0.0,0.0,87,0.00,,,0.02,vanprod-2.5-rc3,2013-05-20 13:11:00,
2013-05-20 07:16:00,44.0,40.4,29.98,North,355,0.0,0.0,87,0.00,,,0.02,vanprod-2.5-rc3,2013-05-20 13:16:00,
2013-05-20 07:21:00,44.3,40.7,29.97,North,355,0.0,0.0,87,0.00,,,0.02,vanprod-2.5-rc3,2013-05-20 13:21:00,
2013-05-20 07:26:00,44.8,41.2,29.96,North,354,0.0,0.0,87,0.00,,,0.02,vanprod-2.5-rc3,2013-05-20 13:26:00,
2013-05-20 07:31:00,45.3,41.4,29.97,SW,222,2.0,3.0,86,0.00,,,0.02,vanprod-2.5-rc3,2013-05-20 13:31:00,
2013-05-20 07:36:00,45.8,41.6,29.97,SSW,201,4.0,4.0,85,0.00,,,0.02,vanprod-2.5-rc3,2013-05-20 13:36:00,
2013-05-20 07:41:00,46.0,41.4,29.97,SSW,203,5.0,6.0,84,0.00,,,0.02,vanprod-2.5-rc3,2013-05-20 13:41:00,
2013-05-20 07:46:00,46.1,41.2,29.97,SSW,198,4.0,4.0,83,0.00,,,0.02,vanprod-2.5-rc3,2013-05-20 13:46:00,
2013-05-20 07:51:00,46.3,41.4,29.97,SSW,203,4.0,4.0,83,0.00,,,0.02,vanprod-2.5-rc3,2013-05-20 13:51:00,
2013-05-20 07:56:00,46.3,40.8,29.97,SSW,207,2.0,0.0,81,0.00,,,0.02,vanprod-2.5-rc3,2013-05-20 13:56:00,
2013-05-20 08:01:00,46.5,40.7,29.98,South,190,5.0,5.0,80,0.00,,,0.02,vanprod-2.5-rc3,2013-05-20 14:01:00,
2013-05-20 08:06:00,46.8,40.6,29.98,South,185,5.0,5.0,79,0.00,,,0.02,vanprod-2.5-rc3,2013-05-20 14:06:00,
2013-05-20 08:11:00,47.1,40.6,29.98,SSW,193,5.0,5.0,78,0.00,,,0.02,vanprod-2.5-rc3,2013-05-20 14:11:00,
2013-05-20 08:16:00,47.4,40.6,29.98,NW,318,1.0,2.0,77,0.00,,,0.02,vanprod-2.5-rc3,2013-05-20 14:16:00,
2013-05-20 08:21:00,47.4,40.6,29.98,NW,319,0.0,0.0,77,0.00,,,0.02,vanprod-2.5-rc3,2013-05-20 14:21:00,
2013-05-20 08:26:00,47.6,41.1,29.97,SSW,201,1.0,3.0,78,0.00,,,0.02,vanprod-2.5-rc3,2013-05-20 14:26:00,
2013-05-20 08:31:00,48.2,41.0,29.97,SSW,200,2.0,2.0,76,0.00,,,0.02,vanprod-2.5-rc3,2013-05-20 14:31:00,
2013-05-20 08:36:00,48.7,41.5,29.97,SSW,211,0.0,0.0,76,0.00,,,0.02,vanprod-2.5-rc3,2013-05-20 14:36:00,
2013-05-20 08:41:00,48.7,41.5,29.98,NW,324,3.0,4.0,76,0.00,,,0.02,vanprod-2.5-rc3,2013-05-20 14:41:00,
2013-05-20 08:46:00,48.3,41.1,29.98,West,275,3.0,4.0,76,0.00,,,0.02,vanprod-2.5-rc3,2013-05-20 14:46:00,
2013-05-20 08:51:00,48.1,41.2,29.98,WNW,292,2.0,0.0,77,0.00,,,0.02,vanprod-2.5-rc3,2013-05-20 14:51:00,
2013-05-20 08:56:00,48.1,41.2,29.98,WNW,288,0.0,0.0,77,0.00,,,0.02,vanprod-2.5-rc3,2013-05-20 14:56:00,
2013-05-20 09:01:00,48.2,41.0,29.97,SW,232,3.0,4.0,76,0.00,,,0.02,vanprod-2.5-rc3,2013-05-20 15:01:00,
2013-05-20 09:06:00,48.5,41.3,29.98,WSW,246,1.0,0.0,76,0.00,,,0.02,vanprod-2.5-rc3,2013-05-20 15:06:00,
2013-05-20 09:11:00,48.9,41.7,29.98,South,188,0.0,0.0,76,0.00,,,0.02,vanprod-2.5-rc3,2013-05-20 15:11:00,
2013-05-20 09:16:00,49.9,42.6,29.99,South,189,3.0,4.0,76,0.00,,,0.02,vanprod-2.5-rc3,2013-05-20 15:16:00,
2013-05-20 09:21:00,51.0,42.7,29.99,SW,218,1.0,0.0,73,0.00,,,0.02,vanprod-2.5-rc3,2013-05-20 15:21:00,
2013-05-20 09:26:00,52.2,43.5,29.98,SW,214,0.0,3.0,72,0.00,,,0.02,vanprod-2.5-rc3,2013-05-20 15:26:00,
2013-05-20 09:31:00,53.1,44.0,29.98,SSW,209,1.0,5.0,71,0.00,,,0.02,vanprod-2.5-rc3,2013-05-20 15:31:00,
2013-05-20 09:36:00,53.4,42.3,29.98,West,281,6.0,6.0,66,0.00,,,0.02,vanprod-2.5-rc3,2013-05-20 15:36:00,
2013-05-20 09:41:00,53.2,40.9,29.98,West,266,10.0,13.0,63,0.00,,,0.02,vanprod-2.5-rc3,2013-05-20 15:41:00,
2013-05-20 09:46:00,53.4,40.7,29.98,WSW,244,9.0,9.0,62,0.00,,,0.02,vanprod-2.5-rc3,2013-05-20 15:46:00,
2013-05-20 09:51:00,53.8,40.3,29.99,WSW,243,12.0,12.0,60,0.00,,,0.02,vanprod-2.5-rc3,2013-05-20 15:51:00,
2013-05-20 09:56:00,54.6,40.1,29.99,SW,236,12.0,15.0,58,0.00,,,0.02,vanprod-2.5-rc3,2013-05-20 15:56:00,
2013-05-20 10:01:00,54.6,38.8,29.99,WSW,242,10.0,11.0,55,0.00,,,0.02,vanprod-2.5-rc3,2013-05-20 16:01:00,
2013-05-20 10:06:00,54.4,39.0,29.99,SW,228,10.0,10.0,56,0.00,,,0.02,vanprod-2.5-rc3,2013-05-20 16:06:00,
2013-05-20 10:11:00,54.2,37.9,29.99,WSW,244,7.0,7.0,54,0.00,,,0.02,vanprod-2.5-rc3,2013-05-20 16:11:00,
2013-05-20 10:16:00,53.9,38.6,29.99,WSW,248,9.0,10.0,56,0.00,,,0.02,vanprod-2.5-rc3,2013-05-20 16:16:00,
2013-05-20 10:21:00,54.2,38.4,29.99,SW,222,2.0,2.0,55,0.00,,,0.02,vanprod-2.5-rc3,2013-05-20 16:21:00,
2013-05-20 10:26:00,54.9,39.1,29.99,SW,233,1.0,0.0,55,0.00,,,0.02,vanprod-2.5-rc3,2013-05-20 16:26:00,
2013-05-20 10:31:00,55.1,38.3,29.99,WSW,250,8.0,8.0,53,0.00,,,0.02,vanprod-2.5-rc3,2013-05-20 16:31:00,
2013-05-20 10:36:00,55.4,38.6,29.99,SW,223,10.0,14.0,53,0.00,,,0.02,vanprod-2.5-rc3,2013-05-20 16:36:00,
2013-05-20 10:41:00,55.3,38.5,29.99,SW,233,9.0,9.0,53,0.00,,,0.02,vanprod-2.5-rc3,2013-05-20 16:41:00,
2013-05-20 10:46:00,55.3,38.5,29.99,SW,234,3.0,9.0,53,0.00,,,0.02,vanprod-2.5-rc3,2013-05-20 16:46:00,
2013-05-20 10:51:00,55.1,38.3,29.99,West,278,6.0,6.0,53,0.00,,,0.02,vanprod-2.5-rc3,2013-05-20 16:51:00,
2013-05-20 10:56:00,55.2,39.3,29.99,West,278,7.0,7.0,55,0.00,,,0.02,vanprod-2.5-rc3,2013-05-20 16:56:00,
2013-05-20 11:01:00,55.4,39.5,29.99,WNW,290,11.0,13.0,55,0.00,,,0.02,vanprod-2.5-rc3,2013-05-20 17:01:00,
2013-05-20 11:06:00,54.8,39.0,29.99,WNW,287,6.0,8.0,55,0.00,,,0.02,vanprod-2.5-rc3,2013-05-20 17:06:00,
2013-05-20 11:11:00,54.7,38.4,29.99,West,269,0.0,0.0,54,0.00,,,0.02,vanprod-2.5-rc3,2013-05-20 17:11:00,
2013-05-20 11:16:00,54.7,38.4,29.99,West,272,12.0,12.0,54,0.00,,,0.02,vanprod-2.5-rc3,2013-05-20 17:16:00,
2013-05-20 11:21:00,54.9,38.6,29.99,West,270,9.0,9.0,54,0.00,,,0.02,vanprod-2.5-rc3,2013-05-20 17:21:00,
2013-05-20 11:26:00,54.8,38.5,29.99,WSW,255,11.0,11.0,54,0.00,,,0.02,vanprod-2.5-rc3,2013-05-20 17:26:00,
2013-05-20 11:31:00,55.0,40.1,29.99,SW,217,2.0,4.0,57,0.00,,,0.02,vanprod-2.5-rc3,2013-05-20 17:31:00,
2013-05-20 11:36:00,55.1,37.8,29.99,West,266,0.0,0.0,52,0.00,,,0.02,vanprod-2.5-rc3,2013-05-20 17:36:00,
2013-05-20 11:41:00,55.1,39.2,29.99,WSW,252,2.0,12.0,55,0.00,,,0.02,vanprod-2.5-rc3,2013-05-20 17:41:00,
2013-05-20 11:46:00,55.1,38.8,29.99,West,280,9.0,9.0,54,0.00,,,0.02,vanprod-2.5-rc3,2013-05-20 17:46:00,
2013-05-20 11:51:00,54.9,39.1,29.99,WSW,257,8.0,8.0,55,0.00,,,0.02,vanprod-2.5-rc3,2013-05-20 17:51:00,
2013-05-20 11:56:00,55.0,38.2,29.99,WSW,249,9.0,10.0,53,0.00,,,0.02,vanprod-2.5-rc3,2013-05-20 17:56:00,
2013-05-20 12:01:00,55.1,38.8,30.00,West,275,10.0,10.0,54,0.00,,,0.02,vanprod-2.5-rc3,2013-05-20 18:01:00,
2013-05-20 12:06:00,55.4,38.6,30.00,West,273,10.0,10.0,53,0.00,,,0.02,vanprod-2.5-rc3,2013-05-20 18:06:00,
2013-05-20 12:11:00,55.6,39.2,29.99,WSW,239,8.0,11.0,54,0.00,,,0.02,vanprod-2.5-rc3,2013-05-20 18:11:00,
2013-05-20 12:16:00,56.2,38.8,29.99,SW,220,6.0,13.0,52,0.00,,,0.02,vanprod-2.5-rc3,2013-05-20 18:16:00,
2013-05-20 12:21:00,56.6,39.2,29.98,SW,217,10.0,10.0,52,0.00,,,0.02,vanprod-2.5-rc3,2013-05-20 18:21:00,
2013-05-20 12:26:00,57.5,39.0,29.98,SW,222,13.0,13.0,50,0.00,,,0.02,vanprod-2.5-rc3,2013-05-20 18:26:00,
2013-05-20 12:31:00,59.0,40.4,29.99,WSW,257,9.0,11.0,50,0.00,,,0.02,vanprod-2.5-rc3,2013-05-20 18:31:00,
2013-05-20 12:36:00,59.6,38.8,29.99,WSW,245,11.0,11.0,46,0.00,,,0.02,vanprod-2.5-rc3,2013-05-20 18:36:00,
2013-05-20 12:41:00,59.0,38.8,29.99,SW,221,9.0,9.0,47,0.00,,,0.02,vanprod-2.5-rc3,2013-05-20 18:41:00,
2013-05-20 12:46:00,58.4,38.8,29.98,SW,232,6.0,6.0,48,0.00,,,0.02,vanprod-2.5-rc3,2013-05-20 18:46:00,
2013-05-20 12:51:00,59.0,39.9,29.99,SW,220,4.0,4.0,49,0.00,,,0.02,vanprod-2.5-rc3,2013-05-20 18:51:00,
2013-05-20 12:56:00,59.0,38.3,29.99,West,259,3.0,4.0,46,0.00,,,0.02,vanprod-2.5-rc3,2013-05-20 18:56:00,
2013-05-20 13:01:00,58.3,39.2,29.98,SW,217,2.0,2.0,49,0.00,,,0.02,vanprod-2.5-rc3,2013-05-20 19:01:00,
2013-05-20 13:06:00,57.7,37.1,29.98,West,270,5.0,5.0,46,0.00,,,0.02,vanprod-2.5-rc3,2013-05-20 19:06:00,
2013-05-20 13:11:00,57.4,37.4,29.99,NNW,341,1.0,1.0,47,0.00,,,0.02,vanprod-2.5-rc3,2013-05-20 19:11:00,
2013-05-20 13:16:00,57.8,37.2,29.98,NNW,338,6.0,6.0,46,0.00,,,0.02,vanprod-2.5-rc3,2013-05-20 19:16:00,
2013-05-20 13:21:00,58.4,38.3,29.98,NE,46,0.0,0.0,47,0.00,,,0.02,vanprod-2.5-rc3,2013-05-20 19:21:00,
2013-05-20 13:26:00,59.6,37.7,29.98,NNE,23,7.0,9.0,44,0.00,,,0.02,vanprod-2.5-rc3,2013-05-20 19:26:00,
2013-05-20 13:31:00,60.2,37.6,29.98,NNE,21,12.0,15.0,43,0.00,,,0.02,vanprod-2.5-rc3,2013-05-20 19:31:00,
2013-05-20 13:36:00,60.8,37.0,29.98,North,5,12.0,12.0,41,0.00,,,0.02,vanprod-2.5-rc3,2013-05-20 19:36:00,
2013-05-20 13:41:00,60.6,38.0,29.98,North,8,6.0,8.0,43,0.00,,,0.02,vanprod-2.5-rc3,2013-05-20 19:41:00,
2013-05-20 13:46:00,60.7,38.7,29.98,North,9,0.0,7.0,44,0.00,,,0.02,vanprod-2.5-rc3,2013-05-20 19:46:00,
2013-05-20 13:51:00,61.1,37.2,29.98,NE,35,8.0,8.0,41,0.00,,,0.02,vanprod-2.5-rc3,2013-05-20 19:51:00,
2013-05-20 13:56:00,61.2,38.5,29.98,NNE,14,17.0,17.0,43,0.00,,,0.02,vanprod-2.5-rc3,2013-05-20 19:56:00,
2013-05-20 14:01:00,61.9,39.2,29.97,NW,313,7.0,7.0,43,0.00,,,0.02,vanprod-2.5-rc3,2013-05-20 20:01:00,
2013-05-20 14:06:00,61.1,37.2,29.97,NW,309,6.0,6.0,41,0.00,,,0.02,vanprod-2.5-rc3,2013-05-20 20:06:00,
2013-05-20 14:11:00,60.4,36.0,29.98,North,352,8.0,8.0,40,0.00,,,0.02,vanprod-2.5-rc3,2013-05-20 20:11:00,
2013-05-20 14:16:00,60.4,37.2,29.98,West,274,0.0,7.0,42,0.00,,,0.02,vanprod-2.5-rc3,2013-05-20 20:16:00,
2013-05-20 14:21:00,60.6,36.8,29.97,NNW,348,11.0,11.0,41,0.00,,,0.02,vanprod-2.5-rc3,2013-05-20 20:21:00,
2013-05-20 14:26:00,61.4,36.9,29.97,ENE,66,4.0,0.0,40,0.00,,,0.02,vanprod-2.5-rc3,2013-05-20 20:26:00,
2013-05-20 14:31:00,61.9,36.7,29.97,NNE,12,10.0,17.0,39,0.00,,,0.02,vanprod-2.5-rc3,2013-05-20 20:31:00,
2013-05-20 14:36:00,62.0,38.1,29.97,North,351,8.0,8.0,41,0.00,,,0.02,vanprod-2.5-rc3,2013-05-20 20:36:00,
2013-05-20 14:41:00,61.4,36.9,29.97,NNW,345,10.0,24.0,40,0.00,,,0.02,vanprod-2.5-rc3,2013-05-20 20:41:00,
2013-05-20 14:46:00,58.2,35.2,29.98,North,359,21.0,22.0,42,0.00,,,0.02,vanprod-2.5-rc3,2013-05-20 20:46:00,
2013-05-20 14:51:00,56.4,35.3,29.98,North,8,17.0,17.0,45,0.00,,,0.02,vanprod-2.5-rc3,2013-05-20 20:51:00,
2013-05-20 14:56:00,56.3,36.3,29.99,NNE,23,17.0,17.0,47,0.00,,,0.02,vanprod-2.5-rc3,2013-05-20 20:56:00,
2013-05-20 15:01:00,56.4,36.4,29.98,NNE,32,17.0,17.0,47,0.00,,,0.02,vanprod-2.5-rc3,2013-05-20 21:01:00,
2013-05-20 15:06:00,56.8,36.3,29.99,North,10,11.0,11.0,46,0.00,,,0.02,vanprod-2.5-rc3,2013-05-20 21:06:00,
2013-05-20 15:11:00,57.4,35.7,30.00,NNE,24,10.0,13.0,44,0.00,,,0.02,vanprod-2.5-rc3,2013-05-20 21:11:00,
2013-05-20 15:16:00,58.0,35.7,30.00,NNE,22,7.0,11.0,43,0.00,,,0.02,vanprod-2.5-rc3,2013-05-20 21:16:00,
2013-05-20 15:21:00,58.3,35.3,30.00,North,7,12.0,13.0,42,0.00,,,0.02,vanprod-2.5-rc3,2013-05-20 21:21:00,
2013-05-20 15:26:00,58.3,35.9,30.00,NNE,32,9.0,9.0,43,0.00,,,0.02,vanprod-2.5-rc3,2013-05-20 21:26:00,
2013-05-20 15:31:00,58.4,36.0,30.00,NNE,15,9.0,9.0,43,0.00,,,0.02,vanprod-2.5-rc3,2013-05-20 21:31:00,
2013-05-20 15:36:00,58.7,36.3,29.99,NNW,331,7.0,7.0,43,0.00,,,0.02,vanprod-2.5-rc3,2013-05-20 21:36:00,
2013-05-20 15:41:00,58.6,35.6,29.99,North,4,8.0,8.0,42,0.00,,,0.02,vanprod-2.5-rc3,2013-05-20 21:41:00,
2013-05-20 15:46:00,58.4,36.0,30.00,NNW,331,8.0,8.0,43,0.00,,,0.02,vanprod-2.5-rc3,2013-05-20 21:46:00,
2013-05-20 15:51:00,58.6,36.8,29.99,West,263,6.0,6.0,44,0.00,,,0.02,vanprod-2.5-rc3,2013-05-20 21:51:00,
2013-05-20 15:56:00,58.4,37.2,30.00,SW,229,0.0,0.0,45,0.00,,,0.02,vanprod-2.5-rc3,2013-05-20 21:56:00,
2013-05-20 16:01:00,58.7,38.5,29.99,South,187,0.0,0.0,47,0.00,,,0.02,vanprod-2.5-rc3,2013-05-20 22:01:00,
2013-05-20 16:06:00,59.0,38.3,29.98,SW,233,0.0,0.0,46,0.00,,,0.02,vanprod-2.5-rc3,2013-05-20 22:06:00,
2013-05-20 16:11:00,59.1,37.2,29.98,SSW,211,1.0,2.0,44,0.00,,,0.02,vanprod-2.5-rc3,2013-05-20 22:11:00,
2013-05-20 16:16:00,59.6,37.7,29.99,South,169,1.0,2.0,44,0.00,,,0.02,vanprod-2.5-rc3,2013-05-20 22:16:00,
2013-05-20 16:21:00,60.3,38.3,29.99,South,182,0.0,0.0,44,0.00,,,0.02,vanprod-2.5-rc3,2013-05-20 22:21:00,
2013-05-20 16:26:00,60.9,38.3,29.99,SSE,158,0.0,0.0,43,0.00,,,0.02,vanprod-2.5-rc3,2013-05-20 22:26:00,
2013-05-20 16:31:00,61.6,38.3,29.98,SSW,213,0.0,0.0,42,0.00,,,0.02,vanprod-2.5-rc3,2013-05-20 22:31:00,
2013-05-20 16:36:00,61.8,37.9,29.98,SSW,193,0.0,0.0,41,0.00,,,0.02,vanprod-2.5-rc3,2013-05-20 22:36:00,
2013-05-20 16:41:00,62.3,38.3,29.98,South,188,0.0,0.0,41,0.00,,,0.02,vanprod-2.5-rc3,2013-05-20 22:41:00,
2013-05-20 16:46:00,62.5,37.9,29.98,WSW,246,0.0,0.0,40,0.00,,,0.02,vanprod-2.5-rc3,2013-05-20 22:46:00,
2013-05-20 16:51:00,62.3,37.7,29.98,SSW,207,0.0,3.0,40,0.00,,,0.02,vanprod-2.5-rc3,2013-05-20 22:51:00,
2013-05-20 16:56:00,61.3,36.8,29.99,North,352,2.0,2.0,40,0.00,,,0.02,vanprod-2.5-rc3,2013-05-20 22:56:00,
2013-05-20 17:01:00,60.4,34.0,29.99,North,8,6.0,7.0,37,0.00,,,0.02,vanprod-2.5-rc3,2013-05-20 23:01:00,
2013-05-20 17:06:00,59.5,33.9,29.99,North,4,11.0,13.0,38,0.00,,,0.02,vanprod-2.5-rc3,2013-05-20 23:06:00,
2013-05-20 17:11:00,59.0,34.1,29.99,NNE,16,10.0,12.0,39,0.00,,,0.02,vanprod-2.5-rc3,2013-05-20 23:11:00,
2013-05-20 17:16:00,59.0,34.7,29.99,North,0,12.0,12.0,40,0.00,,,0.02,vanprod-2.5-rc3,2013-05-20 23:16:00,
2013-05-20 17:21:00,59.0,35.4,30.00,North,350,9.0,9.0,41,0.00,,,0.02,vanprod-2.5-rc3,2013-05-20 23:21:00,
2013-05-20 17:26:00,59.0,35.4,30.00,North,4,8.0,8.0,41,0.00,,,0.02,vanprod-2.5-rc3,2013-05-20 23:26:00,
2013-05-20 17:31:00,59.1,36.1,29.99,NW,326,6.0,6.0,42,0.00,,,0.02,vanprod-2.5-rc3,2013-05-20 23:31:00,
2013-05-20 17:36:00,59.2,36.1,29.99,NW,313,1.0,0.0,42,0.00,,,0.02,vanprod-2.5-rc3,2013-05-20 23:36:00,
2013-05-20 17:41:00,59.4,35.7,30.00,WNW,301,0.0,0.0,41,0.00,,,0.02,vanprod-2.5-rc3,2013-05-20 23:41:00,
2013-05-20 17:46:00,59.7,35.4,29.99,NW,314,0.0,0.0,40,0.00,,,0.02,vanprod-2.5-rc3,2013-05-20 23:46:00,
2013-05-20 17:51:00,59.9,35.5,29.99,NNW,336,0.0,0.0,40,0.00,,,0.02,vanprod-2.5-rc3,2013-05-20 23:51:00,
2013-05-20 17:56:00,59.8,35.5,29.99,North,11,7.0,8.0,40,0.00,,,0.02,vanprod-2.5-rc3,2013-05-20 23:56:00,
2013-05-20 18:01:00,59.7,36.0,29.99,NNE,24,0.0,0.0,41,0.00,,,0.02,vanprod-2.5-rc3,2013-05-21 00:01:00,
2013-05-20 18:06:00,59.6,34.6,29.99,North,360,0.0,0.0,39,0.00,,,0.02,vanprod-2.5-rc3,2013-05-21 00:06:00,
2013-05-20 18:11:00,59.7,35.4,29.99,NE,56,0.0,2.0,40,0.00,,,0.02,vanprod-2.5-rc3,2013-05-21 00:11:00,
2013-05-20 18:16:00,59.8,35.5,29.99,North,4,1.0,0.0,40,0.00,,,0.02,vanprod-2.5-rc3,2013-05-21 00:16:00,
2013-05-20 18:21:00,59.7,35.4,29.99,North,9,0.0,0.0,40,0.00,,,0.02,vanprod-2.5-rc3,2013-05-21 00:21:00,
2013-05-20 18:26:00,59.7,35.4,29.99,NNE,17,0.0,0.0,40,0.00,,,0.02,vanprod-2.5-rc3,2013-05-21 00:26:00,
2013-05-20 18:31:00,59.8,34.8,29.99,North,6,1.0,2.0,39,0.00,,,0.02,vanprod-2.5-rc3,2013-05-21 00:31:00,
2013-05-20 18:36:00,59.8,34.8,29.99,NNE,18,0.0,0.0,39,0.00,,,0.02,vanprod-2.5-rc3,2013-05-21 00:36:00,
2013-05-20 18:41:00,59.7,35.4,29.99,NNE,13,1.0,2.0,40,0.00,,,0.02,vanprod-2.5-rc3,2013-05-21 00:41:00,
2013-05-20 18:46:00,59.8,36.7,29.99,NNE,28,0.0,0.0,42,0.00,,,0.02,vanprod-2.5-rc3,2013-05-21 00:46:00,
2013-05-20 18:51:00,59.7,35.4,29.99,NE,49,0.0,0.0,40,0.00,,,0.02,vanprod-2.5-rc3,2013-05-21 00:51:00,
2013-05-20 18:56:00,59.5,34.5,29.99,NNE,32,2.0,2.0,39,0.00,,,0.02,vanprod-2.5-rc3,2013-05-21 00:56:00,
2013-05-20 19:01:00,59.0,34.1,29.99,NNE,30,3.0,3.0,39,0.00,,,0.02,vanprod-2.5-rc3,2013-05-21 01:01:00,
2013-05-20 19:06:00,58.9,34.0,29.99,NE,39,3.0,3.0,39,0.00,,,0.02,vanprod-2.5-rc3,2013-05-21 01:06:00,
2013-05-20 19:11:00,58.5,34.3,29.99,NNE,27,3.0,3.0,40,0.00,,,0.02,vanprod-2.5-rc3,2013-05-21 01:11:00,
2013-05-20 19:16:00,58.5,34.9,29.97,NE,35,0.0,0.0,41,0.00,,,0.02,vanprod-2.5-rc3,2013-05-21 01:16:00,
2013-05-20 19:21:00,58.6,35.0,29.97,NNE,29,0.0,0.0,41,0.00,,,0.02,vanprod-2.5-rc3,2013-05-21 01:21:00,
2013-05-20 19:26:00,58.3,34.1,29.99,NNE,33,0.0,0.0,40,0.00,,,0.02,vanprod-2.5-rc3,2013-05-21 01:26:00,
2013-05-20 19:31:00,58.1,34.5,29.99,NNE,28,0.0,1.0,41,0.00,,,0.02,vanprod-2.5-rc3,2013-05-21 01:31:00,
2013-05-20 19:36:00,57.8,34.3,29.99,NNE,26,0.0,0.0,41,0.00,,,0.02,vanprod-2.5-rc3,2013-05-21 01:36:00,
2013-05-20 19:41:00,57.5,35.2,30.00,NE,37,0.0,0.0,43,0.00,,,0.02,vanprod-2.5-rc3,2013-05-21 01:41:00,
2013-05-20 19:46:00,57.2,33.1,29.99,North,357,1.0,1.0,40,0.00,,,0.02,vanprod-2.5-rc3,2013-05-21 01:46:00,
2013-05-20 19:51:00,57.0,33.6,30.00,NNE,13,0.0,0.0,41,0.00,,,0.02,vanprod-2.5-rc3,2013-05-21 01:51:00,
2013-05-20 19:56:00,56.8,33.4,30.00,NNE,26,0.0,0.0,41,0.00,,,0.02,vanprod-2.5-rc3,2013-05-21 01:56:00,
2013-05-20 20:01:00,56.7,33.9,30.00,NE,38,0.0,0.0,42,0.00,,,0.02,vanprod-2.5-rc3,2013-05-21 02:01:00,
2013-05-20 20:06:00,56.6,33.8,30.00,NE,38,0.0,0.0,42,0.00,,,0.02,vanprod-2.5-rc3,2013-05-21 02:06:00,
2013-05-20 20:11:00,56.6,33.8,30.00,NE,38,0.0,0.0,42,0.00,,,0.02,vanprod-2.5-rc3,2013-05-21 02:11:00,
2013-05-20 20:16:00,56.5,33.7,30.00,NE,38,0.0,0.0,42,0.00,,,0.02,vanprod-2.5-rc3,2013-05-21 02:16:00,
2013-05-20 20:21:00,56.4,33.6,30.00,NW,326,0.0,0.0,42,0.00,,,0.02,vanprod-2.5-rc3,2013-05-21 02:21:00,
2013-05-20 20:26:00,56.2,33.4,30.00,North,8,0.0,0.0,42,0.00,,,0.02,vanprod-2.5-rc3,2013-05-21 02:26:00,
2013-05-20 20:31:00,56.1,34.5,30.00,North,5,0.0,0.0,44,0.00,,,0.02,vanprod-2.5-rc3,2013-05-21 02:31:00,
2013-05-20 20:36:00,55.9,33.7,30.00,NNW,338,0.0,0.0,43,0.00,,,0.02,vanprod-2.5-rc3,2013-05-21 02:36:00,
2013-05-20 20:41:00,55.8,33.7,30.00,NNW,348,0.0,0.0,43,0.00,,,0.02,vanprod-2.5-rc3,2013-05-21 02:41:00,
2013-05-20 20:46:00,55.7,34.1,30.00,NNE,13,0.0,0.0,44,0.00,,,0.02,vanprod-2.5-rc3,2013-05-21 02:46:00,
2013-05-20 20:51:00,55.6,34.1,30.00,NNE,13,0.0,0.0,44,0.00,,,0.02,vanprod-2.5-rc3,2013-05-21 02:51:00,
2013-05-20 20:56:00,55.4,34.4,30.01,NNE,13,0.0,0.0,45,0.00,,,0.02,vanprod-2.5-rc3,2013-05-21 02:56:00,
2013-05-20 21:01:00,55.0,34.1,30.00,NNE,13,0.0,0.0,45,0.00,,,0.02,vanprod-2.5-rc3,2013-05-21 03:01:00,
2013-05-20 21:06:00,54.8,34.4,30.00,WNW,283,0.0,0.0,46,0.00,,,0.02,vanprod-2.5-rc3,2013-05-21 03:06:00,
2013-05-20 21:11:00,54.6,34.3,30.00,West,262,0.0,0.0,46,0.00,,,0.02,vanprod-2.5-rc3,2013-05-21 03:11:00,
2013-05-20 21:16:00,54.5,34.2,30.00,West,262,0.0,0.0,46,0.00,,,0.02,vanprod-2.5-rc3,2013-05-21 03:16:00,
2013-05-20 21:21:00,54.4,34.1,30.02,West,259,0.0,0.0,46,0.00,,,0.02,vanprod-2.5-rc3,2013-05-21 03:21:00,
2013-05-20 21:26:00,54.2,34.4,30.02,SW,224,0.0,0.0,47,0.00,,,0.02,vanprod-2.5-rc3,2013-05-21 03:26:00,
2013-05-20 21:31:00,54.0,34.8,30.02,SSW,208,0.0,0.0,48,0.00,,,0.02,vanprod-2.5-rc3,2013-05-21 03:31:00,
2013-05-20 21:36:00,53.7,34.5,30.02,SSW,193,0.0,0.0,48,0.00,,,0.02,vanprod-2.5-rc3,2013-05-21 03:36:00,
2013-05-20 21:41:00,53.5,34.8,30.02,South,189,0.0,0.0,49,0.00,,,0.02,vanprod-2.5-rc3,2013-05-21 03:41:00,
2013-05-20 21:46:00,53.4,34.7,30.03,South,188,0.0,0.0,49,0.00,,,0.02,vanprod-2.5-rc3,2013-05-21 03:46:00,
2013-05-20 21:51:00,53.4,34.2,30.03,SSW,195,0.0,0.0,48,0.00,,,0.02,vanprod-2.5-rc3,2013-05-21 03:51:00,
2013-05-20 21:56:00,53.5,34.8,30.03,SSW,194,0.0,0.0,49,0.00,,,0.02,vanprod-2.5-rc3,2013-05-21 03:56:00,
2013-05-20 22:01:00,53.5,35.3,30.03,South,190,0.0,0.0,50,0.00,,,0.02,vanprod-2.5-rc3,2013-05-21 04:01:00,
2013-05-20 22:06:00,53.3,35.2,30.03,South,190,0.0,0.0,50,0.00,,,0.02,vanprod-2.5-rc3,2013-05-21 04:06:00,
2013-05-20 22:11:00,53.1,35.0,30.03,South,190,0.0,0.0,50,0.00,,,0.02,vanprod-2.5-rc3,2013-05-21 04:11:00,
2013-05-20 22:16:00,52.7,35.6,30.03,South,190,0.0,0.0,52,0.00,,,0.02,vanprod-2.5-rc3,2013-05-21 04:16:00,
2013-05-20 22:21:00,52.1,35.0,30.02,South,190,0.0,0.0,52,0.00,,,0.02,vanprod-2.5-rc3,2013-05-21 04:21:00,
2013-05-20 22:26:00,51.7,34.7,30.05,South,190,0.0,0.0,52,0.00,,,0.02,vanprod-2.5-rc3,2013-05-21 04:26:00,
2013-05-20 22:31:00,51.7,34.7,30.05,South,190,0.0,0.0,52,0.00,,,0.02,vanprod-2.5-rc3,2013-05-21 04:31:00,
2013-05-20 22:36:00,51.8,35.2,30.02,South,190,0.0,0.0,53,0.00,,,0.02,vanprod-2.5-rc3,2013-05-21 04:36:00,
2013-05-20 22:41:00,52.0,34.9,30.03,South,191,0.0,0.0,52,0.00,,,0.02,vanprod-2.5-rc3,2013-05-21 04:41:00,
2013-05-20 22:46:00,52.2,35.1,30.03,South,191,0.0,0.0,52,0.00,,,0.02,vanprod-2.5-rc3,2013-05-21 04:46:00,
2013-05-20 22:51:00,52.4,35.3,30.03,South,186,0.0,0.0,52,0.00,,,0.02,vanprod-2.5-rc3,2013-05-21 04:51:00,
2013-05-20 22:56:00,52.6,36.0,30.04,South,182,0.0,0.0,53,0.00,,,0.02,vanprod-2.5-rc3,2013-05-21 04:56:00,
2013-05-20 23:01:00,52.7,35.6,30.04,South,175,0.0,0.0,52,0.00,,,0.02,vanprod-2.5-rc3,2013-05-21 05:01:00,
2013-05-20 23:06:00,52.8,35.7,30.04,South,186,0.0,0.0,52,0.00,,,0.02,vanprod-2.5-rc3,2013-05-21 05:06:00,
2013-05-20 23:11:00,53.0,36.3,30.04,South,183,0.0,0.0,53,0.00,,,0.02,vanprod-2.5-rc3,2013-05-21 05:11:00,
2013-05-20 23:16:00,53.1,36.0,30.04,South,186,0.0,0.0,52,0.00,,,0.02,vanprod-2.5-rc3,2013-05-21 05:16:00,
2013-05-20 23:21:00,53.2,36.0,30.04,SSW,196,0.0,0.0,52,0.00,,,0.02,vanprod-2.5-rc3,2013-05-21 05:21:00,
2013-05-20 23:26:00,53.3,36.1,30.04,South,185,0.0,0.0,52,0.00,,,0.02,vanprod-2.5-rc3,2013-05-21 05:26:00,
2013-05-20 23:31:00,53.3,36.1,30.04,South,185,0.0,0.0,52,0.00,,,0.02,vanprod-2.5-rc3,2013-05-21 05:31:00,
2013-05-20 23:36:00,53.3,36.1,30.04,South,178,0.0,0.0,52,0.00,,,0.02,vanprod-2.5-rc3,2013-05-21 05:36:00,
2013-05-20 23:41:00,53.2,36.5,30.04,South,173,0.0,0.0,53,0.00,,,0.02,vanprod-2.5-rc3,2013-05-21 05:41:00,
2013-05-20 23:46:00,52.9,36.3,30.04,South,173,0.0,0.0,53,0.00,,,0.02,vanprod-2.5-rc3,2013-05-21 05:46:00,
2013-05-20 23:51:00,52.6,36.4,30.04,South,173,0.0,0.0,54,0.00,,,0.02,vanprod-2.5-rc3,2013-05-21 05:51:00,
2013-05-20 23:56:00,52.4,35.8,30.05,South,173,0.0,0.0,53,0.00,,,0.02,vanprod-2.5-rc3,2013-05-21 05:56:00,